�v������,���O�C��(��),���O���x(��),�Ɠx(lx),��O�J�Z���T�[(1:�~�J),����(m/s)
2023-01-01 00:00:00,2.4,82.2,0,0.0,2
2023-01-01 00:10:00,2.3,84.2,2,0.0,2
2023-01-01 00:20:00,2,83.9,0,0.0,1
2023-01-01 00:30:00,2.1,83.4,0,0.0,0.5
2023-01-01 00:40:00,1.8,85.3,0,0.0,1.5
2023-01-01 00:50:00,1.6,86.7,0,0.0,1
2023-01-01 01:00:00,2,86.9,0,0.0,0
2023-01-01 01:10:00,1.5,86,0,0.0,1
2023-01-01 01:20:00,1.2,86.5,0,0.0,1
2023-01-01 01:30:00,1.3,87.6,0,0.0,1
2023-01-01 01:40:00,1.1,87.4,0,0.0,1
2023-01-01 01:50:00,1.2,86.8,0,0.0,0
2023-01-01 02:00:00,1.4,88.4,0,0.0,1
2023-01-01 02:10:00,1.1,86.8,0,0.0,1
2023-01-01 02:20:00,1.1,86.7,0,0.0,0
2023-01-01 02:30:00,0.8,87.1,0,0.0,0
2023-01-01 02:40:00,0.8,87.4,0,0.0,0
2023-01-01 02:50:00,1,87.7,0,0.0,1
2023-01-01 03:00:00,0.9,87.4,0,0.0,1
2023-01-01 03:10:00,1,87.9,0,0.0,1
2023-01-01 03:20:00,0.7,87.5,0,0.0,1
2023-01-01 03:30:00,0.8,87.3,0,0.0,1
2023-01-01 03:40:00,0.9,88,0,0.0,1
2023-01-01 03:50:00,0.5,88.7,0,0.0,0
2023-01-01 04:00:00,0.6,89.8,0,0.0,1
2023-01-01 04:10:00,0.5,90.5,0,0.0,1
2023-01-01 04:20:00,0.5,91.1,0,0.0,1
2023-01-01 04:30:00,0.5,91.2,0,0.0,1
2023-01-01 04:40:00,0.3,91.1,0,0.0,1
2023-01-01 04:50:00,0.4,90.5,0,0.0,0
2023-01-01 05:00:00,0.5,88.4,0,0.0,0
2023-01-01 05:10:00,0.6,88.4,0,0.0,0
2023-01-01 05:20:00,0.3,89.5,0,0.0,0
2023-01-01 05:30:00,0.4,90.1,0,0.0,1
2023-01-01 05:40:00,0.6,89,0,0.0,1
2023-01-01 05:50:00,0.4,88.8,0,0.0,1
2023-01-01 06:00:00,0.6,88.3,0,0.0,0
2023-01-01 06:10:00,0.7,88.3,0,0.0,1
2023-01-01 06:20:00,0.7,87.4,0,0.0,1
2023-01-01 06:30:00,1.1,87.2,2,0.0,1
2023-01-01 06:40:00,1.2,85.9,2,0.0,1
2023-01-01 06:50:00,1,85.4,4,0.0,1
2023-01-01 07:00:00,1.4,84.9,40,0.0,1
2023-01-01 07:10:00,1.4,84.7,248,0.0,1
2023-01-01 07:20:00,1.2,84.5,999.68,0.0,1
2023-01-01 07:30:00,1.4,84.8,999.68,0.0,1
2023-01-01 07:40:00,1.5,85.8,4999.68,0.0,1
2023-01-01 07:50:00,1.8,85.1,6999.04,0.0,1
2023-01-01 08:00:00,1.8,84.2,9999.36,0.0,1
2023-01-01 08:10:00,2,83.6,11991,0.0,1
2023-01-01 08:20:00,2.3,82.4,12994.6,0.0,1
2023-01-01 08:30:00,2.7,81.2,13998.1,0.0,1
2023-01-01 08:40:00,3.1,79.1,15994.9,0.0,1
2023-01-01 08:50:00,3.7,76.8,16998.4,0.0,1.5
2023-01-01 09:00:00,4.4,73.6,17991.7,0.0,1
2023-01-01 09:10:00,4.9,71.8,17991.7,0.0,1
2023-01-01 09:20:00,5.3,70.2,17991.7,0.0,1
2023-01-01 09:30:00,5.9,68.2,17991.7,0.0,1
2023-01-01 09:40:00,6.5,65.8,17991.7,0.0,0
2023-01-01 09:50:00,7,64.1,18995.2,0.0,1
2023-01-01 10:00:00,7.5,62.3,18995.2,0.0,1
2023-01-01 10:10:00,8,60.4,18995.2,0.0,0.5
2023-01-01 10:20:00,8.5,55.4,18995.2,0.0,2
2023-01-01 10:30:00,9.1,53.4,18995.2,0.0,1
2023-01-01 10:40:00,9.4,47.6,18995.2,0.0,2
2023-01-01 10:50:00,9.3,48.7,19998.7,0.0,1.5
2023-01-01 11:00:00,9.3,52.9,19998.7,0.0,3
2023-01-01 11:10:00,9,53.4,19998.7,0.0,6
2023-01-01 11:20:00,9.2,53.9,20992,0.0,4
2023-01-01 11:30:00,9.2,53.5,20992,0.0,2
2023-01-01 11:40:00,9.5,52.8,21995.5,0.0,2
2023-01-01 11:50:00,9.6,51.1,22999,0.0,2
2023-01-01 12:00:00,9.8,51.1,22999,0.0,2
2023-01-01 12:10:00,10.1,50.3,23982.1,0.0,2
2023-01-01 12:20:00,10.1,47.7,23982.1,0.0,5
2023-01-01 12:30:00,10.2,47,24985.6,0.0,1
2023-01-01 12:40:00,10.7,44.7,24985.6,0.0,3.5
2023-01-01 12:50:00,10.8,45,25989.1,0.0,1
2023-01-01 13:00:00,10.7,42.5,25989.1,0.0,1
2023-01-01 13:10:00,11.2,42.6,25989.1,0.0,3
2023-01-01 13:20:00,11.4,42.4,25989.1,0.0,1
2023-01-01 13:30:00,11,41.7,26992.6,0.0,4
2023-01-01 13:40:00,11.3,41.5,26992.6,0.0,1.5
2023-01-01 13:50:00,11.2,42.2,26992.6,0.0,2.5
2023-01-01 14:00:00,11.4,41,26992.6,0.0,3
2023-01-01 14:10:00,11.6,40.3,26992.6,0.0,1
2023-01-01 14:20:00,11.7,38.8,25989.1,0.0,1
2023-01-01 14:30:00,11.3,40.5,25989.1,0.0,4.5
2023-01-01 14:40:00,11.7,41.5,24985.6,0.0,3
2023-01-01 14:50:00,11.6,41.5,24985.6,0.0,1.5
2023-01-01 15:00:00,11.6,42.5,23982.1,0.0,3
2023-01-01 15:10:00,11.4,42.9,22999,0.0,4
2023-01-01 15:20:00,11.5,42.8,21995.5,0.0,4.5
2023-01-01 15:30:00,11.5,43,20992,0.0,1
2023-01-01 15:40:00,11.3,45.7,18995.2,0.0,4
2023-01-01 15:50:00,11,46.4,16998.4,0.0,2
2023-01-01 16:00:00,10.5,47.2,15994.9,0.0,2
2023-01-01 16:10:00,10.4,47.3,13998.1,0.0,2
2023-01-01 16:20:00,10.3,48.4,12994.6,0.0,4
2023-01-01 16:30:00,10.3,50.7,10997.8,0.0,2.5
2023-01-01 16:40:00,10.1,51.3,9999.36,0.0,2
2023-01-01 16:50:00,9.9,51.6,7997.44,0.0,2
2023-01-01 17:00:00,9.8,53.1,2997.76,0.0,3
2023-01-01 17:10:00,9.5,53.5,999.68,0.0,1
2023-01-01 17:20:00,9.3,54,999.68,0.0,3
2023-01-01 17:30:00,9.3,54.6,209.92,0.0,2
2023-01-01 17:40:00,9.1,54.1,40,0.0,4.5
2023-01-01 17:50:00,9.3,54.9,4,0.0,2
2023-01-01 18:00:00,9.1,55.7,2,0.0,1
2023-01-01 18:10:00,9,56.3,0,0.0,2
2023-01-01 18:20:00,8.9,59.2,0,0.0,1
2023-01-01 18:30:00,8.8,58.1,2,0.0,1
2023-01-01 18:40:00,8.7,58.5,0,0.0,1
2023-01-01 18:50:00,8.8,60.3,0,0.0,1
2023-01-01 19:00:00,8.8,61.1,0,0.0,1
2023-01-01 19:10:00,8.8,61.3,0,0.0,2
2023-01-01 19:20:00,8.4,62.1,0,0.0,1
2023-01-01 19:30:00,8.6,62.9,2,0.0,0
2023-01-01 19:40:00,8.6,64,2,0.0,1
2023-01-01 19:50:00,8.1,61.2,2,0.0,1
2023-01-01 20:00:00,7.6,62.1,0,0.0,0
2023-01-01 20:10:00,7.1,62.7,2,0.0,0
2023-01-01 20:20:00,6.9,64,2,0.0,1
2023-01-01 20:30:00,6.6,64.9,2,0.0,1
2023-01-01 20:40:00,6.4,66.4,2,0.0,1
2023-01-01 20:50:00,6.1,67.3,2,0.0,0.5
2023-01-01 21:00:00,5.9,68.4,0,0.0,0.5
2023-01-01 21:10:00,5.9,69.6,0,0.0,1
2023-01-01 21:20:00,5.7,69.8,0,0.0,0
2023-01-01 21:30:00,5.5,70.3,0,0.0,0
2023-01-01 21:40:00,5.6,70.8,0,0.0,1
2023-01-01 21:50:00,5.2,71.3,0,0.0,1
2023-01-01 22:00:00,5.3,71.4,2,0.0,0
2023-01-01 22:10:00,5.2,71.5,0,0.0,0.5
2023-01-01 22:20:00,5.1,72.2,0,0.0,1
2023-01-01 22:30:00,5,73.2,2,0.0,0
2023-01-01 22:40:00,4.9,73.9,0,0.0,1
2023-01-01 22:50:00,4.7,74.5,0,0.0,1
2023-01-01 23:00:00,5,73.9,2,0.0,1
2023-01-01 23:10:00,4.9,74.3,2,0.0,1
2023-01-01 23:20:00,4.8,74.7,2,0.0,0
2023-01-01 23:30:00,4.5,75.9,0,0.0,0.5
2023-01-01 23:40:00,4.3,76.7,0,0.0,0
2023-01-01 23:50:00,4.3,77.3,0,0.0,0.5
2023-01-02 00:00:00,4.7,76.8,2,0.0,1
2023-01-02 00:10:00,4.7,76.7,2,0.0,0
2023-01-02 00:20:00,4.5,77.2,0,0.0,1
2023-01-02 00:30:00,4.8,76.8,0,0.0,0.5
2023-01-02 00:40:00,4.6,77.7,0,0.0,1
2023-01-02 00:50:00,4.5,77.6,0,0.0,1
2023-01-02 01:00:00,4.5,78.1,0,0.0,0
2023-01-02 01:10:00,4.1,78.3,0,0.0,1
2023-01-02 01:20:00,4.2,79,0,0.0,0.5
2023-01-02 01:30:00,4.3,79,0,0.0,1
2023-01-02 01:40:00,4.2,79.6,0,0.0,1
2023-01-02 01:50:00,4,80.8,0,0.0,0
2023-01-02 02:00:00,3.8,81.1,0,0.0,0
2023-01-02 02:10:00,3.9,81,0,0.0,1
2023-01-02 02:20:00,3.7,81,0,0.0,1
2023-01-02 02:30:00,3.5,81.7,0,0.0,2
2023-01-02 02:40:00,3.6,82,0,0.0,1.5
2023-01-02 02:50:00,3.6,82.5,0,0.0,1
2023-01-02 03:00:00,3.4,83.3,0,0.0,0
2023-01-02 03:10:00,3.5,83.2,0,0.0,1
2023-01-02 03:20:00,3.5,83.4,0,0.0,1
2023-01-02 03:30:00,3.1,84.2,0,0.0,1
2023-01-02 03:40:00,2.8,85.1,0,0.0,1
2023-01-02 03:50:00,2.7,85.6,0,0.0,1
2023-01-02 04:00:00,2.5,86.5,0,0.0,1
2023-01-02 04:10:00,2.3,87.1,0,0.0,1
2023-01-02 04:20:00,2.2,88,0,0.0,1
2023-01-02 04:30:00,2.5,88.7,0,0.0,1
2023-01-02 04:40:00,2.7,88.3,0,0.0,1
2023-01-02 04:50:00,2.7,87.8,0,0.0,1
2023-01-02 05:00:00,2.7,87.9,0,0.0,2
2023-01-02 05:10:00,2.6,87.7,0,0.0,1
2023-01-02 05:20:00,2.5,87.3,0,0.0,1.5
2023-01-02 05:30:00,2.4,87.8,0,0.0,1
2023-01-02 05:40:00,2.7,87.8,2,0.0,1
2023-01-02 05:50:00,2.6,87.4,0,0.0,1
2023-01-02 06:00:00,2.9,87,0,0.0,0
2023-01-02 06:10:00,2.9,86.7,0,0.0,1
2023-01-02 06:20:00,2.8,86.6,0,0.0,1
2023-01-02 06:30:00,2.9,86.8,0,0.0,1
2023-01-02 06:40:00,2.9,86.9,2,0.0,1
2023-01-02 06:50:00,3,87.3,4,0.0,1
2023-01-02 07:00:00,2.9,88,26,0.0,1
2023-01-02 07:10:00,2.9,88.1,124,0.0,1
2023-01-02 07:20:00,3,87.9,387.84,0.0,1
2023-01-02 07:30:00,3,87.5,999.68,0.0,1
2023-01-02 07:40:00,3,88.2,999.68,0.0,0
2023-01-02 07:50:00,3.2,88.3,1999.36,0.0,0
2023-01-02 08:00:00,3.3,88.6,1999.36,0.0,1
2023-01-02 08:10:00,3.4,87.7,2997.76,0.0,1
2023-01-02 08:20:00,3.6,87.7,11991,0.0,1
2023-01-02 08:30:00,4,85.3,12994.6,0.0,1
2023-01-02 08:40:00,4.5,82.7,14991.4,0.0,0
2023-01-02 08:50:00,5.3,80.2,16998.4,0.0,1
2023-01-02 09:00:00,5.5,77.7,17991.7,0.0,1
2023-01-02 09:10:00,6.1,75.6,16998.4,0.0,1.5
2023-01-02 09:20:00,6.7,73.5,17991.7,0.0,2
2023-01-02 09:30:00,7.3,71.5,17991.7,0.0,1
2023-01-02 09:40:00,7.8,68.6,18995.2,0.0,1
2023-01-02 09:50:00,8.4,59.1,18995.2,0.0,1
2023-01-02 10:00:00,9.1,55.3,18995.2,0.0,4
2023-01-02 10:10:00,9.2,55.2,19998.7,0.0,6.5
2023-01-02 10:20:00,9.5,55,19998.7,0.0,5
2023-01-02 10:30:00,9.7,53.8,19998.7,0.0,2
2023-01-02 10:40:00,9.8,53.5,19998.7,0.0,5.5
2023-01-02 10:50:00,9.9,52.5,19998.7,0.0,2.5
2023-01-02 11:00:00,9.8,51.8,19998.7,0.0,2
2023-01-02 11:10:00,9.8,51.4,20992,0.0,5
2023-01-02 11:20:00,10.2,51.6,20992,0.0,4.5
2023-01-02 11:30:00,10.3,48.9,20992,0.0,3
2023-01-02 11:40:00,10.6,49,21995.5,0.0,3
2023-01-02 11:50:00,10.4,50.6,22999,0.0,1
2023-01-02 12:00:00,10.2,49.9,22999,0.0,2
2023-01-02 12:10:00,10.6,47.2,23982.1,0.0,1
2023-01-02 12:20:00,10.7,47.6,23982.1,0.0,1
2023-01-02 12:30:00,11,44.8,23982.1,0.0,2
2023-01-02 12:40:00,11.2,42.4,24985.6,0.0,4
2023-01-02 12:50:00,11.2,42.9,24985.6,0.0,2.5
2023-01-02 13:00:00,11.2,42.5,16998.4,0.0,3.5
2023-01-02 13:10:00,11.3,42.6,24985.6,0.0,1
2023-01-02 13:20:00,11.4,40.6,25989.1,0.0,2
2023-01-02 13:30:00,11.4,42,25989.1,0.0,5
2023-01-02 13:40:00,11.3,43.2,25989.1,0.0,4.5
2023-01-02 13:50:00,11.2,43.9,26992.6,0.0,2
2023-01-02 14:00:00,11.4,43.7,25989.1,0.0,2
2023-01-02 14:10:00,11.1,45.6,25989.1,0.0,3
2023-01-02 14:20:00,11,48.4,25989.1,0.0,2
2023-01-02 14:30:00,10.8,48.3,24985.6,0.0,2
2023-01-02 14:40:00,10.7,48.5,24985.6,0.0,3
2023-01-02 14:50:00,10.8,48.5,23982.1,0.0,3.5
2023-01-02 15:00:00,10.4,48.5,22999,0.0,3
2023-01-02 15:10:00,10.4,48.3,22999,0.0,2.5
2023-01-02 15:20:00,10.4,48.8,20992,0.0,1
2023-01-02 15:30:00,10.2,49.2,19998.7,0.0,1
2023-01-02 15:40:00,10.3,49.5,17991.7,0.0,2
2023-01-02 15:50:00,10.1,50.2,16998.4,0.0,3
2023-01-02 16:00:00,10.1,52.1,15994.9,0.0,2
2023-01-02 16:10:00,10.1,53.2,13998.1,0.0,4
2023-01-02 16:20:00,9.7,50,11991,0.0,4.5
2023-01-02 16:30:00,9.7,50.7,9999.36,0.0,6.5
2023-01-02 16:40:00,9.5,51.5,9999.36,0.0,6
2023-01-02 16:50:00,9.2,51.5,8995.84,0.0,2
2023-01-02 17:00:00,9.2,52.6,5995.52,0.0,3
2023-01-02 17:10:00,9,52.5,1999.36,0.0,5
2023-01-02 17:20:00,8.9,51.4,999.68,0.0,2
2023-01-02 17:30:00,8.6,51.3,339.84,0.0,3.5
2023-01-02 17:40:00,8.5,51.3,58,0.0,1
2023-01-02 17:50:00,8.6,53.5,6,0.0,5
2023-01-02 18:00:00,8.3,52.7,2,0.0,2
2023-01-02 18:10:00,8.4,54.4,2,0.0,5
2023-01-02 18:20:00,8.3,53.6,2,0.0,1
2023-01-02 18:30:00,8.2,53.6,2,0.0,4
2023-01-02 18:40:00,8.1,53.3,2,0.0,3.5
2023-01-02 18:50:00,7.8,54.5,2,0.0,4.5
2023-01-02 19:00:00,7.9,55.3,0,0.0,4
2023-01-02 19:10:00,7.9,54.8,2,0.0,3
2023-01-02 19:20:00,7.8,53.7,0,0.0,3
2023-01-02 19:30:00,7.7,53.8,0,0.0,2
2023-01-02 19:40:00,7.5,53.9,2,0.0,4
2023-01-02 19:50:00,7.5,53.2,2,0.0,1
2023-01-02 20:00:00,7.4,52.9,0,0.0,6
2023-01-02 20:10:00,7.6,52.2,0,0.0,4
2023-01-02 20:20:00,7.7,51.8,0,0.0,4
2023-01-02 20:30:00,7.5,52.4,0,0.0,3
2023-01-02 20:40:00,7.7,51.9,0,0.0,5
2023-01-02 20:50:00,7.4,54.5,0,0.0,1.5
2023-01-02 21:00:00,6.5,59.3,2,0.0,1
2023-01-02 21:10:00,5.8,62.3,0,0.0,0
2023-01-02 21:20:00,5.4,63.8,0,0.0,2
2023-01-02 21:30:00,6.2,60.5,0,0.0,1
2023-01-02 21:40:00,6.4,58.3,0,0.0,1
2023-01-02 21:50:00,6.8,55.8,0,0.0,3
2023-01-02 22:00:00,7,52.8,0,0.0,2
2023-01-02 22:10:00,7.1,52.2,0,0.0,2
2023-01-02 22:20:00,6.9,52.6,0,0.0,2
2023-01-02 22:30:00,6.9,52.8,2,0.0,4.5
2023-01-02 22:40:00,6.9,52.9,0,0.0,3.5
2023-01-02 22:50:00,6.7,54.3,0,0.0,4
2023-01-02 23:00:00,6.9,53.4,0,0.0,2
2023-01-02 23:10:00,6.1,57.6,0,0.0,1
2023-01-02 23:20:00,4.8,61.8,0,0.0,1
2023-01-02 23:30:00,4.3,64.8,0,0.0,1
2023-01-02 23:40:00,3.9,67.6,0,0.0,1
2023-01-02 23:50:00,3.4,69.5,0,0.0,1
2023-01-03 00:00:00,3.2,69.7,0,0.0,1
2023-01-03 00:10:00,3.2,69.8,0,0.0,1
2023-01-03 00:20:00,2.9,69.3,0,0.0,1
2023-01-03 00:30:00,3.1,68.8,0,0.0,1
2023-01-03 00:40:00,3,68.6,2,0.0,1
2023-01-03 00:50:00,2.9,69.3,0,0.0,1
2023-01-03 01:00:00,2.8,69.9,0,0.0,1
2023-01-03 01:10:00,2.8,69.6,0,0.0,1
2023-01-03 01:20:00,2.9,69.5,0,0.0,1
2023-01-03 01:30:00,2.6,69,0,0.0,1
2023-01-03 01:40:00,2.7,68.5,0,0.0,1
2023-01-03 01:50:00,2.8,68.8,0,0.0,1
2023-01-03 02:00:00,2.8,69.6,0,0.0,0
2023-01-03 02:10:00,2.3,70.4,0,0.0,1
2023-01-03 02:20:00,2.4,70.5,0,0.0,1
2023-01-03 02:30:00,2.5,70.6,0,0.0,1
2023-01-03 02:40:00,2.4,71.1,0,0.0,1
2023-01-03 02:50:00,2.5,71.6,2,0.0,1
2023-01-03 03:00:00,2.2,72.4,0,0.0,1
2023-01-03 03:10:00,2.1,72.9,0,0.0,1
2023-01-03 03:20:00,1.9,73.5,0,0.0,1.5
2023-01-03 03:30:00,1.9,74.2,0,0.0,1
2023-01-03 03:40:00,1.8,74.1,0,0.0,2
2023-01-03 03:50:00,1.9,73.9,0,0.0,1
2023-01-03 04:00:00,1.7,74,0,0.0,1
2023-01-03 04:10:00,1.7,74.7,0,0.0,0
2023-01-03 04:20:00,1.3,75.9,0,0.0,1
2023-01-03 04:30:00,1.2,76.6,0,0.0,1
2023-01-03 04:40:00,1.3,77.2,0,0.0,1
2023-01-03 04:50:00,1.1,78,0,0.0,1
2023-01-03 05:00:00,1.1,78.4,0,0.0,1
2023-01-03 05:10:00,1.1,79,0,0.0,1
2023-01-03 05:20:00,1.1,78.4,0,0.0,1
2023-01-03 05:30:00,0.9,79,0,0.0,1
2023-01-03 05:40:00,0.9,78.9,0,0.0,1
2023-01-03 05:50:00,0.9,78.6,0,0.0,1
2023-01-03 06:00:00,0.9,78.2,0,0.0,1
2023-01-03 06:10:00,0.8,78,0,0.0,0
2023-01-03 06:20:00,0.9,78,0,0.0,1
2023-01-03 06:30:00,1,78,0,0.0,1
2023-01-03 06:40:00,1.2,77.4,2,0.0,0.5
2023-01-03 06:50:00,1,77.5,6,0.0,0
2023-01-03 07:00:00,0.8,78,48,0.0,1
2023-01-03 07:10:00,0.9,77.4,260,0.0,1
2023-01-03 07:20:00,1,76.3,999.68,0.0,0
2023-01-03 07:30:00,1.1,75.4,999.68,0.0,0
2023-01-03 07:40:00,1.2,74.4,6999.04,0.0,1
2023-01-03 07:50:00,1.5,73.4,9999.36,0.0,1
2023-01-03 08:00:00,1.9,71.6,12994.6,0.0,1
2023-01-03 08:10:00,2.3,70,14991.4,0.0,1
2023-01-03 08:20:00,2.7,67,14991.4,0.0,1
2023-01-03 08:30:00,3.1,66.3,14991.4,0.0,2
2023-01-03 08:40:00,3.5,66.8,15994.9,0.0,2
2023-01-03 08:50:00,4,63.3,17991.7,0.0,1
2023-01-03 09:00:00,4.8,60.2,17991.7,0.0,1
2023-01-03 09:10:00,5,57.9,17991.7,0.0,2
2023-01-03 09:20:00,5.7,56.2,18995.2,0.0,1
2023-01-03 09:30:00,6,54.1,18995.2,0.0,1
2023-01-03 09:40:00,6.8,53.1,20992,0.0,1
2023-01-03 09:50:00,7.3,51.2,21995.5,0.0,2.5
2023-01-03 10:00:00,7.5,52.1,15493.1,0.0,1
2023-01-03 10:10:00,7.4,52.1,9999.36,0.0,4
2023-01-03 10:20:00,7.5,54.1,10997.8,0.0,0.5
2023-01-03 10:30:00,7.5,53.3,8995.84,0.0,3
2023-01-03 10:40:00,7.9,53.8,20490.2,0.0,3
2023-01-03 10:50:00,8.1,51.7,19998.7,0.0,5
2023-01-03 11:00:00,8.3,48.8,21995.5,0.0,1.5
2023-01-03 11:10:00,8.6,48.1,20992,0.0,9
2023-01-03 11:20:00,8.4,48.3,24985.6,0.0,1
2023-01-03 11:30:00,8.2,49.1,25989.1,0.0,3
2023-01-03 11:40:00,8.9,47.4,24985.6,0.0,3
2023-01-03 11:50:00,8.5,48.7,23982.1,0.0,5
2023-01-03 12:00:00,8.3,47.2,23490.6,0.0,3.5
2023-01-03 12:10:00,8.6,46.2,24985.6,0.0,5.5
2023-01-03 12:20:00,9,45.9,25989.1,0.0,1
2023-01-03 12:30:00,8.9,46.7,25989.1,0.0,3
2023-01-03 12:40:00,9.2,45.2,26992.6,0.0,1
2023-01-03 12:50:00,9.5,45.8,25989.1,0.0,2
2023-01-03 13:00:00,10,44.4,25989.1,0.0,3
2023-01-03 13:10:00,9.8,43.2,26992.6,0.0,3
2023-01-03 13:20:00,9.7,43.4,25989.1,0.0,2
2023-01-03 13:30:00,9.9,44,26992.6,0.0,7
2023-01-03 13:40:00,9.9,41.6,26992.6,0.0,2.5
2023-01-03 13:50:00,10,42.1,26992.6,0.0,2
2023-01-03 14:00:00,9.8,42.8,26992.6,0.0,4
2023-01-03 14:10:00,9.8,43.5,26992.6,0.0,4
2023-01-03 14:20:00,9.9,42.9,26992.6,0.0,2
2023-01-03 14:30:00,9.7,43.8,25989.1,0.0,4
2023-01-03 14:40:00,9.7,45.6,25989.1,0.0,3
2023-01-03 14:50:00,9.8,46.5,24985.6,0.0,6
2023-01-03 15:00:00,10,46.5,24985.6,0.0,5.5
2023-01-03 15:10:00,9.5,47.5,23982.1,0.0,3
2023-01-03 15:20:00,9.6,48,22999,0.0,2
2023-01-03 15:30:00,9.3,48.3,21995.5,0.0,2
2023-01-03 15:40:00,9.4,49.4,19998.7,0.0,1.5
2023-01-03 15:50:00,9.4,50.1,18995.2,0.0,1
2023-01-03 16:00:00,9.2,50.7,16998.4,0.0,6.5
2023-01-03 16:10:00,9.1,50.1,15994.9,0.0,4
2023-01-03 16:20:00,9,50.3,14991.4,0.0,1
2023-01-03 16:30:00,8.8,49.8,12994.6,0.0,2.5
2023-01-03 16:40:00,8.7,50.5,10997.8,0.0,1
2023-01-03 16:50:00,8.7,52.1,9999.36,0.0,3
2023-01-03 17:00:00,8.2,51.6,7997.44,0.0,2
2023-01-03 17:10:00,8.2,53.3,3998.72,0.0,2
2023-01-03 17:20:00,7.8,52.5,999.68,0.0,4.5
2023-01-03 17:30:00,7.8,54.5,381.76,0.0,2
2023-01-03 17:40:00,7.5,53.2,56,0.0,2
2023-01-03 17:50:00,7.7,53.2,6,0.0,4
2023-01-03 18:00:00,7.4,54.3,2,0.0,4.5
2023-01-03 18:10:00,7.5,53.2,2,0.0,3.5
2023-01-03 18:20:00,7.6,56.2,2,0.0,1
2023-01-03 18:30:00,7.3,53.9,2,0.0,4.5
2023-01-03 18:40:00,7.3,55.5,2,0.0,1.5
2023-01-03 18:50:00,7.2,55.3,2,0.0,1
2023-01-03 19:00:00,7,56.9,2,0.0,3.5
2023-01-03 19:10:00,6.9,56.4,2,0.0,3.5
2023-01-03 19:20:00,7.1,56.4,2,0.0,4
2023-01-03 19:30:00,7.1,55,2,0.0,2
2023-01-03 19:40:00,6.9,56.2,0,0.0,3.5
2023-01-03 19:50:00,6.8,56.2,0,0.0,3.5
2023-01-03 20:00:00,6.9,55.6,2,0.0,2
2023-01-03 20:10:00,6.5,56.9,2,0.0,1
2023-01-03 20:20:00,5.8,58.3,2,0.0,1
2023-01-03 20:30:00,5.2,62.9,0,0.0,0
2023-01-03 20:40:00,5.1,61.4,0,0.0,1
2023-01-03 20:50:00,4.7,62.7,0,0.0,1
2023-01-03 21:00:00,4.3,61.7,0,0.0,1
2023-01-03 21:10:00,4.5,58.6,0,0.0,1
2023-01-03 21:20:00,4.6,58.8,2,0.0,0
2023-01-03 21:30:00,4.2,61.3,0,0.0,0
2023-01-03 21:40:00,4.1,61.3,0,0.0,0
2023-01-03 21:50:00,4,61.6,0,0.0,0.5
2023-01-03 22:00:00,3.6,60.9,0,0.0,0
2023-01-03 22:10:00,3.7,62.2,0,0.0,0
2023-01-03 22:20:00,3.6,62.5,0,0.0,0
2023-01-03 22:30:00,3.5,62.5,0,0.0,0
2023-01-03 22:40:00,3.2,61.3,0,0.0,2
2023-01-03 22:50:00,3.4,61.2,2,0.0,1
2023-01-03 23:00:00,3.2,61.1,0,0.0,0
2023-01-03 23:10:00,3.3,61.1,0,0.0,0
2023-01-03 23:20:00,3.1,61.9,0,0.0,0
2023-01-03 23:30:00,2.8,63.8,2,0.0,0
2023-01-03 23:40:00,2.3,65.6,0,0.0,1
2023-01-03 23:50:00,2.5,66.6,0,0.0,0
2023-01-04 00:00:00,2.2,67.4,0,0.0,0
2023-01-04 00:10:00,2.2,67.3,0,0.0,1
2023-01-04 00:20:00,2.2,66.7,0,0.0,1
2023-01-04 00:30:00,2.3,66.9,0,0.0,0
2023-01-04 00:40:00,2.5,64.5,0,0.0,1
2023-01-04 00:50:00,2.2,64.3,0,0.0,1
2023-01-04 01:00:00,2.2,64.6,0,0.0,1
2023-01-04 01:10:00,2.3,66.4,0,0.0,1
2023-01-04 01:20:00,2.2,66.7,0,0.0,2
2023-01-04 01:30:00,2.5,65.5,0,0.0,1
2023-01-04 01:40:00,2.4,67,0,0.0,1
2023-01-04 01:50:00,2.8,64.5,0,0.0,1
2023-01-04 02:00:00,2.7,63.7,0,0.0,2
2023-01-04 02:10:00,2.8,63.8,0,0.0,1.5
2023-01-04 02:20:00,2.8,64.3,0,0.0,2
2023-01-04 02:30:00,2.7,64.5,0,0.0,1
2023-01-04 02:40:00,2.9,64.1,0,0.0,1
2023-01-04 02:50:00,2.5,65.2,0,0.0,0
2023-01-04 03:00:00,2.8,64.7,2,0.0,1
2023-01-04 03:10:00,2.9,64.8,2,0.0,1
2023-01-04 03:20:00,2.4,66.4,0,0.0,2
2023-01-04 03:30:00,2.5,67.9,0,0.0,0
2023-01-04 03:40:00,2.3,68,0,0.0,1
2023-01-04 03:50:00,2.1,69,0,0.0,1
2023-01-04 04:00:00,2.1,68.4,0,0.0,1
2023-01-04 04:10:00,2.4,69.2,0,0.0,1.5
2023-01-04 04:20:00,2.5,69.6,0,0.0,1
2023-01-04 04:30:00,2.2,70.3,0,0.0,1
2023-01-04 04:40:00,2.1,70.2,0,0.0,0
2023-01-04 04:50:00,2,71.7,0,0.0,0.5
2023-01-04 05:00:00,2.2,71.5,0,0.0,0
2023-01-04 05:10:00,3.1,70.3,0,0.0,1.5
2023-01-04 05:20:00,5.2,60.5,0,0.0,1
2023-01-04 05:30:00,3.6,64.8,0,0.0,0
2023-01-04 05:40:00,4.3,65.2,0,0.0,1
2023-01-04 05:50:00,4.9,61.4,0,0.0,2
2023-01-04 06:00:00,4.4,63,0,0.0,1
2023-01-04 06:10:00,4.6,63.9,0,0.0,1
2023-01-04 06:20:00,4.3,63.8,0,0.0,0
2023-01-04 06:30:00,4.8,62.1,2,0.0,1
2023-01-04 06:40:00,4.7,62.7,2,0.0,1
2023-01-04 06:50:00,4.9,62.9,6,0.0,0
2023-01-04 07:00:00,4.5,62.8,58,0.0,1
2023-01-04 07:10:00,4.9,62.9,317.92,0.0,1
2023-01-04 07:20:00,4.7,64.2,999.68,0.0,0.5
2023-01-04 07:30:00,4.6,64.5,1999.36,0.0,1
2023-01-04 07:40:00,4.8,62.4,6999.04,0.0,1
2023-01-04 07:50:00,5,63.6,9999.36,0.0,1
2023-01-04 08:00:00,4.8,64.3,10997.8,0.0,1
2023-01-04 08:10:00,4.7,64.4,12994.6,0.0,2
2023-01-04 08:20:00,5,63.9,13998.1,0.0,1
2023-01-04 08:30:00,5.1,61.3,5995.52,0.0,1
2023-01-04 08:40:00,5.3,61.7,14991.4,0.0,1
2023-01-04 08:50:00,5.8,60.6,18995.2,0.0,0
2023-01-04 09:00:00,6.3,57.9,18995.2,0.0,1
2023-01-04 09:10:00,6.4,57.1,18995.2,0.0,1
2023-01-04 09:20:00,6.7,55,17991.7,0.0,2
2023-01-04 09:30:00,7.1,54,19998.7,0.0,2
2023-01-04 09:40:00,7.2,53.2,19998.7,0.0,1
2023-01-04 09:50:00,7.8,52.6,18995.2,0.0,2
2023-01-04 10:00:00,8.1,50.4,19998.7,0.0,1
2023-01-04 10:10:00,8.2,46.7,22999,0.0,2
2023-01-04 10:20:00,8.1,45.8,20992,0.0,4
2023-01-04 10:30:00,7.9,46.7,20992,0.0,8.5
2023-01-04 10:40:00,7.9,46.7,20992,0.0,6.5
2023-01-04 10:50:00,8,46.7,20992,0.0,4
2023-01-04 11:00:00,8,47.4,20992,0.0,5
2023-01-04 11:10:00,8.1,47.4,21995.5,0.0,5
2023-01-04 11:20:00,8.3,46.6,22999,0.0,6
2023-01-04 11:30:00,8.4,45.8,23982.1,0.0,4.5
2023-01-04 11:40:00,8.4,45.3,25989.1,0.0,2.5
2023-01-04 11:50:00,8.6,45.3,25989.1,0.0,4.5
2023-01-04 12:00:00,8.8,44.5,25989.1,0.0,4
2023-01-04 12:10:00,8.8,43.7,24985.6,0.0,4
2023-01-04 12:20:00,9.2,45.8,24985.6,0.0,4
2023-01-04 12:30:00,9,43.5,25989.1,0.0,3
2023-01-04 12:40:00,9.3,43.7,24985.6,0.0,5
2023-01-04 12:50:00,9.4,42.2,25989.1,0.0,4
2023-01-04 13:00:00,9.5,42.8,25989.1,0.0,3.5
2023-01-04 13:10:00,9.5,42.7,26992.6,0.0,2.5
2023-01-04 13:20:00,9.6,43.6,26992.6,0.0,4
2023-01-04 13:30:00,9.5,43.9,26992.6,0.0,5.5
2023-01-04 13:40:00,9.2,46.9,26992.6,0.0,6
2023-01-04 13:50:00,9.6,45.5,26992.6,0.0,2
2023-01-04 14:00:00,9.5,45,26992.6,0.0,1
2023-01-04 14:10:00,9.5,47.3,26992.6,0.0,3
2023-01-04 14:20:00,9.5,47.6,26992.6,0.0,3
2023-01-04 14:30:00,9.5,46.8,25989.1,0.0,2
2023-01-04 14:40:00,9.2,46.2,24985.6,0.0,3.5
2023-01-04 14:50:00,9.5,46.6,24985.6,0.0,3.5
2023-01-04 15:00:00,9.4,44.2,23982.1,0.0,4.5
2023-01-04 15:10:00,9.4,47.2,22999,0.0,8.5
2023-01-04 15:20:00,9.2,46,21995.5,0.0,2
2023-01-04 15:30:00,9.4,47,20992,0.0,4
2023-01-04 15:40:00,9.3,49,19998.7,0.0,4
2023-01-04 15:50:00,9,48,17991.7,0.0,3
2023-01-04 16:00:00,8.9,49.5,16998.4,0.0,2
2023-01-04 16:10:00,9,49,15994.9,0.0,1
2023-01-04 16:20:00,9,48.6,13998.1,0.0,2.5
2023-01-04 16:30:00,8.4,50.2,12994.6,0.0,3
2023-01-04 16:40:00,8.4,49.9,10997.8,0.0,2
2023-01-04 16:50:00,8,49.8,8995.84,0.0,3
2023-01-04 17:00:00,8.1,48.3,6999.04,0.0,1
2023-01-04 17:10:00,8,50.8,2997.76,0.0,4
2023-01-04 17:20:00,7.6,50.3,999.68,0.0,1
2023-01-04 17:30:00,7.6,50.6,363.84,0.0,2
2023-01-04 17:40:00,7.4,52.1,50,0.0,2
2023-01-04 17:50:00,7.3,52.3,6,0.0,2
2023-01-04 18:00:00,7.3,52.8,2,0.0,4.5
2023-01-04 18:10:00,7.2,53.1,2,0.0,2
2023-01-04 18:20:00,7.3,53.7,2,0.0,1
2023-01-04 18:30:00,7.2,53.4,2,0.0,4
2023-01-04 18:40:00,7.3,52,2,0.0,2
2023-01-04 18:50:00,7.3,50.8,2,0.0,4.5
2023-01-04 19:00:00,7,53,2,0.0,4
2023-01-04 19:10:00,6.9,53.3,2,0.0,5.5
2023-01-04 19:20:00,7,54.1,2,0.0,2
2023-01-04 19:30:00,7.1,53.6,2,0.0,3
2023-01-04 19:40:00,7.2,51.6,2,0.0,3
2023-01-04 19:50:00,7.1,52.7,2,0.0,3
2023-01-04 20:00:00,7,53.8,2,0.0,3
2023-01-04 20:10:00,7,53.4,0,0.0,3.5
2023-01-04 20:20:00,6.8,53.2,2,0.0,1
2023-01-04 20:30:00,6.8,53.9,2,0.0,1.5
2023-01-04 20:40:00,6,57.4,2,0.0,2
2023-01-04 20:50:00,5.3,61.2,0,0.0,1
2023-01-04 21:00:00,4.7,63.5,0,0.0,2
2023-01-04 21:10:00,4.4,66.2,0,0.0,1
2023-01-04 21:20:00,4.4,66,0,0.0,1
2023-01-04 21:30:00,4.4,65.4,0,0.0,1
2023-01-04 21:40:00,4.1,64.8,0,0.0,1
2023-01-04 21:50:00,4.1,65.9,2,0.0,1
2023-01-04 22:00:00,4.1,65.9,0,0.0,0
2023-01-04 22:10:00,3.8,66.2,2,0.0,0
2023-01-04 22:20:00,4,66.7,2,0.0,1
2023-01-04 22:30:00,4,66.8,0,0.0,1.5
2023-01-04 22:40:00,4,66.3,0,0.0,1
2023-01-04 22:50:00,3.9,66.1,0,0.0,2
2023-01-04 23:00:00,4.3,66.1,0,0.0,2
2023-01-04 23:10:00,4.1,66.5,0,0.0,1
2023-01-04 23:20:00,3.9,67.7,0,0.0,1
2023-01-04 23:30:00,3.6,69.5,0,0.0,1
2023-01-04 23:40:00,3.6,70,0,0.0,1
2023-01-04 23:50:00,3.9,68.2,0,0.0,1
2023-01-05 00:00:00,4,67.3,0,0.0,1.5
2023-01-05 00:10:00,3.9,67,2,0.0,1
2023-01-05 00:20:00,3.8,68,0,0.0,2
2023-01-05 00:30:00,4,68.4,0,0.0,2
2023-01-05 00:40:00,4,68.8,0,0.0,2
2023-01-05 00:50:00,3.9,68.8,0,0.0,1
2023-01-05 01:00:00,3.7,69.4,0,0.0,1
2023-01-05 01:10:00,3.4,70.1,0,0.0,0
2023-01-05 01:20:00,3.2,71.5,0,0.0,1
2023-01-05 01:30:00,3.2,72.4,0,0.0,0.5
2023-01-05 01:40:00,2.9,73,0,0.0,1
2023-01-05 01:50:00,2.6,74.1,2,0.0,1
2023-01-05 02:00:00,2.8,73.9,0,0.0,1
2023-01-05 02:10:00,3.2,72.7,2,0.0,1
2023-01-05 02:20:00,3.3,71.7,0,0.0,1.5